SCP
0 0 0 0 0 0 0 0 0 0 0 0 0 0 0 0 0 0 0 0 0 0 0 0 0 0 0 0 0 0 0 0 0 0 0 0 0 0 0 0 0 0 -0 0 0 0 0 0 0 0 0 0 -0 -0
0 0 0 0 0 0 0 0 0 0 0 0 0 0 0 0 0 0 0 0 0 0 0 0 0 0 0 0 0 0 0 0 0 0 0 0 0 0 0 0 0 0 0 0 0 0 0 0 0 0 0 0 -0 -0
0 0 0 0 0 0 0 0 0 0 0 0 0 0 0 0 0 0 0 0 0 0 0 0 0 0 0 0 0 0 0 0 0 0 0 0 0 0 0 0 0 0 0 0 0 0 0 0 0 0 0 0 0 -0
0 0 0 0 0 0 0 0 0 0 0 0 0 0 0 0 0 0 0 0 0 0 0 0 0 0 0 -0 0 -0 0 0 0 0 0 0 0 0 0 0 0 0 0 0 0 0 0 0 0 0 0 0 -0 0
0 0 0 0 0 0 0 0 0 0 0 0 0 0 0 0 0 0 0 0 0 0 0 0 0 0 0 0 0 0 -0 0 0 0 0 0 0 0 0 0 0 0 0 0 0 0 0 0 0 0 -0 -0 -0 -0
0 0 0 0 0 0 0 0 0 0 0 0 0 0 0 0 0 0 0 0 0 0 0 0 0 0 0 -0 0 -0 0 0 0 0 0 0 0 0 0 0 0 0 0 0 0 0 0 0 0 0 -0 -0 -0 -0
0 0 0 0 0 0 0 0 0 0 0 0 0 0 0 0 0 0 0 0 0 0 0 0 0 0 0 -0 0 -0 0 0 0 0 0 0 0 0 0 0 0 0 0 0 0 0 0 0 0 0 -0 -0 -0 -0
0 0 0 0 0 0 0 0 0 0 0 0 0 0 0 0 0 0 0 0 0 0 0 0 0 0 0 0 -0 0 0 0 0 0 0 0 0 0 0 0 0 -0 0 0 0 0 0 0 -0 -0 -0 -0 0 0
0 0 0 0 0 0 0 0 0 0 0 0 0 0 0 0 0 0 0 0 0 0 0 0 0 0 0 0 0 0 0 0 0 0 0 0 0 0 0 0 0 0 0 0 0 -0 -0 -0 -0 -0 -0 0 0 0
0 0 0 0 0 0 0 0 0 0 0 0 0 0 0 0 0 0 0 0 0 0 0 0 0 0 0 0 0 0 -0 0 0 0 0 0 0 0 0 0 0 0 0 0 0 -0 0 0 0 0 0 0 0 0
0 0 0 0 0 0 0 0 0 0 0 0 0 0 0 0 0 0 0 0 0 0 -0 0 0 0 0 0 0 -0 -0 -0 -0 0 0 0 0 -0 -0 0 0 0 0 0 0 0 0 0 0 0 0 0 0 0
0 0 0 0 0 0 0 0 0 0 0 0 0 0 0 0 0 0 0 0 0 0 -0 0 0 0 0 0 0 -0 0 -0 0 0 0 -0 -0 -0 -0 0 0 0 0 0 0 0 -0 0 0 0 0 0 0 0
0 0 0 0 0 0 0 0 0 0 0 0 0 0 0 0 0 0 0 0 0 0 0 0 0 0 0 0 0 0 -0 0 0 -0 -0 -0 -0 -0 -0 0 0 0 0 0 0 0 -0 0 0 0 0 0 0 0
0 0 0 0 0 0 0 0 0 0 0 0 0 0 0 0 0 0 0 0 0 0 0 0 0 -0 0 0 0 0 0 0 -0 -0 0 -0 -0 -0 -0 0 0 0 0 0 0 -0 -0 -0 0 0 0 0 0 0
0 0 0 0 0 0 0 0 0 0 0 0 0 0 0 0 0 0 0 0 0 0 0 0 0 -0 -0 -0 0 0 0 0 0 0 0 -0 -0 -0 -0 -0 0 0 0 0 0 -0 -0 -0 0 0 0 0 0 0
0 0 0 0 0 0 0 0 0 0 0 0 0 0 0 0 0 0 0 0 0 0 0 -0 -0 -0 -0 0 0 0 0 0 0 0 0 -0 -0 -0 -0 -0 -0 0 0 0 0 -0 -0 -0 -0 -0 0 0 0 0
0 0 0 0 0 0 0 0 0 0 0 0 0 0 0 0 0 0 0 0 0 0 -0 -0 -0 0 0 0 0 0 0 0 0 -0 -0 -0 -0 -0 -0 -0 -0 0 -0 0 0 0 -0 -0 -0 -0 0 -0 0 0
0 0 0 0 0 0 0 0 0 0 0 0 0 0 0 0 0 0 0 0 0 0 -0 -0 0 -0 0 0 0 0 0 0 0 0 0 0 -0 -0 -0 -0 -0 -0 -0 0 -0 0 -0 -0 -0 -0 -0 -0 -0 0
0 0 0 0 0 0 0 0 0 0 0 0 0 0 0 0 -0 0 0 0 0 0 0 0 -0 -0 -0 0 0 0 0 0 -0 0 0 0 -0 -0 -0 -0 -0 -0 -0 0 0 0 -0 -0 -0 -0 -0 -0 -0 -0
0 0 0 0 0 0 0 0 0 0 0 0 0 0 0 0 0 0 0 0 0 0 0 0 0 -0 -0 -0 -0 -0 -0 0 -0 0 0 0 -0 -0 -0 -0 -0 -0 -0 0 0 0 0 -0 -0 -0 -0 -0 -0 -0
0 0 0 0 0 0 0 0 0 0 0 0 0 0 0 0 0 -0 -0 0 0 0 0 0 0 0 -0 -0 -0 0 0 0 0 -0 0 0 0 0 -0 -0 -0 -0 -0 -0 -0 0 0 -0 0 0 -0 -0 -0 -0
0 0 0 0 0 0 0 0 0 0 0 0 0 0 0 0 0 0 0 0 0 -0 -0 0 0 0 -0 -0 -0 0 0 0 0 0 0 0 0 0 0 0 -0 -0 -0 -0 -0 -0 0 -0 -0 0 0 0 0 -0
0 0 0 0 0 0 0 0 0 0 0 0 0 0 0 0 0 0 0 -0 0 0 0 0 0 0 0 -0 -0 -0 0 0 0 0 0 0 0 0 0 0 0 0 -0 -0 -0 -0 -0 0 0 -0 0 -0 -0 -0
0 0 0 0 0 0 0 0 0 0 0 0 0 0 0 0 0 0 0 0 0 0 0 0 0 0 0 0 -0 -0 0 0 0 0 0 0 0 0 0 0 0 0 0 0 0 0 0 -0 -0 0 0 -0 0 0
0 0 0 0 0 0 0 0 0 0 0 0 0 0 0 0 0 0 0 0 0 0 0 0 0 0 0 -0 -0 -0 -0 -0 0 0 0 0 0 0 0 0 0 0 0 0 0 0 -0 0 0 0 0 -0 -0 0
0 0 0 0 0 0 0 0 0 0 0 0 0 0 0 0 0 0 0 0 0 0 0 0 0 0 0 -0 -0 -0 0 -0 -0 0 -0 0 0 0 0 0 0 0 0 0 0 0 0 0 0 0 0 0 0 -0
0 0 0 0 0 0 0 0 0 0 0 0 0 0 0 0 0 0 0 0 0 0 0 0 0 0 0 0 0 -0 -0 -0 -0 -0 -0 -0 0 0 0 0 0 0 0 0 0 0 0 0 0 0 0 0 0 -0
0 0 0 0 0 0 0 0 0 0 0 0 0 0 0 0 0 0 0 0 0 0 0 0 0 0 0 0 0 -0 -0 0 0 0 -0 -0 0 0 0 0 0 0 0 0 0 0 0 0 0 0 0 0 0 0
0 0 0 0 0 0 0 0 0 0 0 0 0 0 0 0 0 0 0 0 0 0 0 0 0 0 0 0 0 -0 -0 -0 -0 0 0 0 0 0 0 0 0 0 0 0 0 0 0 0 0 0 0 0 0 0
0 0 0 0 0 0 0 0 0 0 0 0 0 0 0 0 0 0 0 0 0 0 0 0 0 0 0 0 -0 -0 -0 -0 -0 -0 -0 0 0 0 0 0 0 0 0 0 0 0 0 0 0 0 0 0 0 0
0 0 0 0 0 0 0 0 0 0 0 0 0 0 0 0 0 0 0 0 0 0 0 0 0 0 0 0 0 0 0 -0 -0 -0 -0 -0 0 0 0 0 0 0 0 0 0 0 0 0 0 0 0 0 0 0
0 0 0 0 0 0 0 0 0 0 0 0 0 0 0 0 0 0 0 0 0 0 0 0 0 0 0 0 0 0 0 -0 -0 -0 -0 -0 -0 0 0 0 0 0 0 0 0 0 0 0 0 0 0 0 0 0
0 0 0 0 0 0 0 0 0 0 0 0 0 0 0 0 0 0 0 0 0 0 0 0 0 0 0 0 0 0 0 0 0 -0 -0 0 -0 -0 0 0 0 0 0 0 0 0 0 0 0 0 0 0 0 0
Wind_Speed_500mb
40 39 38 38 39 41 38 40 43 45 51 45 47 45 43 41 33 25 18 1 14 20 58 55 42 43 36 22 5 14 19 8 8 6 4 4 3 6 7 7 7 5 6 6 3 8 12 9 3 9 8 37 39 43
42 40 38 42 39 41 37 37 42 46 49 48 46 48 43 38 31 22 30 14 24 34 50 74 85 78 77 80 54 26 20 12 7 4 5 6 5 6 3 6 9 5 6 5 10 9 8 20 32 48 38 28 52 55
43 42 39 40 39 40 37 36 39 46 46 48 46 48 43 39 35 26 35 34 29 30 55 21 20 14 31 9 22 26 22 20 13 16 1 4 8 1 3 8 6 9 22 8 12 7 13 34 40 27 48 54 54 62
43 44 40 39 43 39 37 34 36 44 47 47 46 48 41 41 38 36 41 40 27 17 12 23 32 60 25 40 32 37 41 19 17 14 9 7 5 10 6 11 18 20 11 9 11 25 35 26 43 61 65 53 54 51
41 44 41 41 42 40 37 34 37 43 43 45 43 48 42 41 43 39 19 9 6 14 10 32 59 18 31 13 18 40 41 44 20 8 6 6 7 6 7 7 7 9 5 4 8 33 16 35 44 62 63 57 50 49
37 39 41 41 43 41 38 33 37 44 44 43 40 43 39 37 37 29 3 14 4 20 12 8 29 28 39 16 12 27 42 47 29 10 9 11 12 8 6 6 12 35 18 34 23 27 34 52 48 52 56 50 50 44
53 45 46 45 45 42 34 32 38 43 42 40 37 41 32 26 31 14 6 4 5 4 9 12 16 24 38 26 8 26 37 26 21 8 12 9 9 7 8 13 31 37 48 42 25 28 31 40 44 58 46 42 41 40
48 42 45 42 42 38 30 33 39 42 39 36 35 35 28 25 12 6 7 11 16 15 7 5 9 19 18 7 10 7 14 17 12 8 6 7 7 12 9 21 20 29 35 18 23 27 34 49 58 42 37 39 37 37
49 45 39 37 34 31 28 33 38 40 37 34 25 23 6 5 2 11 20 18 3 4 5 4 6 7 22 16 15 6 6 4 8 5 6 7 5 8 15 20 20 27 9 22 14 22 41 49 43 34 31 33 38 36
49 50 38 33 31 28 28 32 37 35 33 22 5 4 4 7 7 22 5 2 3 2 3 6 8 7 13 9 8 6 6 3 5 9 9 6 5 38 53 27 28 15 8 7 23 33 41 45 35 31 35 32 30 32
52 43 36 29 29 27 26 29 32 29 23 11 5 2 5 10 8 5 4 5 6 4 7 11 15 12 16 7 6 8 5 5 4 5 5 1 4 14 36 16 14 6 5 12 14 29 41 39 37 32 37 31 29 28
45 37 36 31 31 25 21 25 24 20 15 11 7 4 3 0 5 4 4 4 4 4 9 9 19 20 16 12 5 9 4 5 8 12 5 6 12 59 60 33 17 4 2 7 14 40 40 37 37 31 30 30 25 24
41 41 33 35 30 21 17 20 16 14 7 3 4 2 0 2 4 0 8 4 5 4 7 16 12 8 8 8 10 5 6 8 20 5 3 8 44 68 46 23 1 9 3 7 20 38 42 26 35 35 32 32 30 29
44 37 38 33 27 18 15 13 12 7 5 2 4 8 6 1 3 0 5 6 7 11 25 28 21 10 8 5 3 7 7 7 5 17 10 16 60 81 34 35 12 11 2 8 21 37 41 44 42 40 38 39 40 41
40 36 35 28 22 16 12 9 6 10 4 3 3 2 5 4 12 19 19 21 27 25 36 29 15 10 3 3 2 6 6 8 7 9 8 49 73 58 54 51 20 6 7 8 23 27 35 48 46 47 42 40 44 41
43 36 31 24 19 16 12 11 14 8 3 3 5 3 6 8 10 16 17 21 29 37 30 10 9 11 3 7 5 12 8 9 9 13 42 64 74 66 54 48 33 7 10 11 21 20 24 42 45 50 48 44 44 43
38 34 28 24 22 17 20 22 10 6 5 5 9 12 22 18 5 9 15 21 25 22 4 5 6 5 7 9 10 7 8 12 46 57 59 66 72 72 66 49 45 14 4 12 12 11 13 28 44 40 52 45 42 45
41 35 30 29 26 26 24 10 7 9 9 14 7 14 15 15 8 12 16 20 14 10 8 6 10 10 6 5 5 10 37 48 50 57 62 67 73 77 74 46 45 22 8 8 17 9 7 18 34 41 41 44 42 43
37 33 35 34 37 18 10 9 6 4 13 11 19 11 16 19 20 16 13 12 6 4 8 10 8 5 4 7 22 36 39 44 55 63 66 56 60 68 67 52 49 32 29 16 17 11 15 15 23 33 30 37 46 43
33 34 33 39 36 10 8 7 10 6 6 1 3 9 15 15 19 17 17 15 21 14 15 7 4 8 12 26 32 38 44 43 49 54 59 56 57 57 47 55 60 30 21 17 21 10 9 10 14 17 25 25 37 43
43 35 32 34 27 8 7 6 11 9 5 4 4 17 16 20 20 20 18 24 22 10 8 6 9 12 18 27 36 43 37 37 37 31 39 51 46 43 44 51 46 43 41 30 22 22 8 4 10 11 14 18 24 32
36 32 29 31 8 9 7 10 5 2 7 7 6 9 14 11 11 7 15 18 10 8 5 5 11 16 22 26 31 45 37 30 24 25 27 32 42 44 41 39 41 38 37 36 22 22 3 8 2 11 18 26 24 21
38 36 21 10 7 17 8 10 8 9 5 5 8 8 8 8 14 16 10 8 8 10 6 9 12 14 20 23 32 47 38 32 32 35 31 34 38 33 33 32 27 33 35 30 16 18 13 16 7 9 14 20 19 20
43 17 10 14 12 9 7 8 8 4 2 3 4 8 7 10 22 8 6 7 14 3 5 7 10 12 20 29 37 46 46 30 28 34 43 41 39 38 39 37 30 25 31 26 21 10 20 13 16 15 13 17 17 16
11 13 10 10 15 8 9 8 9 7 7 8 8 5 7 11 5 5 6 14 14 7 4 6 8 17 23 26 30 41 40 34 27 30 33 39 41 42 41 38 34 32 33 24 18 5 16 11 14 24 22 25 22 17
7 13 15 17 7 9 10 10 11 10 6 6 7 14 8 7 5 6 5 19 16 11 10 8 12 19 22 21 24 39 45 28 20 25 26 28 35 42 48 52 52 43 37 31 28 19 9 20 27 9 39 33 29 22
8 10 13 18 11 11 7 10 19 9 7 8 7 6 6 6 5 6 20 19 18 15 11 9 9 8 14 14 15 27 37 32 24 19 25 25 32 37 43 46 49 48 41 34 30 23 19 9 19 26 16 47 46 41
13 9 10 17 12 18 6 8 9 9 8 11 18 6 10 9 5 19 20 21 18 15 14 11 11 6 9 11 17 23 31 35 28 18 21 29 32 34 36 42 39 35 36 33 32 28 24 24 21 28 31 22 42 56
11 10 12 11 11 8 17 9 11 10 9 24 9 5 8 9 26 32 27 23 18 12 15 15 19 18 13 12 16 22 31 39 45 44 45 48 50 49 47 48 52 48 45 38 35 28 30 29 27 26 33 43 34 26
11 22 10 14 10 7 11 11 12 13 14 28 29 45 51 41 29 28 30 25 18 16 14 14 15 15 15 14 19 21 27 35 43 42 39 42 44 40 42 47 50 51 50 48 43 38 21 19 27 33 35 39 52 55
14 25 13 13 11 17 17 25 35 35 38 40 56 61 40 36 37 32 27 20 18 13 11 17 15 16 16 13 15 19 21 25 33 36 33 27 31 35 37 42 43 45 47 45 44 44 41 26 11 15 31 39 36 40
20 16 22 8 10 27 30 35 15 24 32 35 27 32 27 17 10 17 16 13 12 14 18 15 10 8 8 6 9 19 13 20 28 35 41 32 32 33 34 37 38 38 39 41 42 42 43 43 39 25 10 6 21 39
31 16 28 14 13 22 30 22 12 15 17 12 15 36 24 13 9 12 19 18 17 16 16 15 12 8 7 5 3 11 6 16 25 36 36 31 31 30 30 33 34 34 34 34 37 39 42 42 42 40 34 25 14 17
Wind_Direction_500mb
268 276 286 293 300 306 311 316 323 330 332 335 335 334 335 336 337 332 348 198 305 271 287 282 277 273 265 255 211 303 338 345 345 358 326 309 326 313 332 301 266 273 197 239 247 239 268 149 168 225 235 301 302 300
267 275 282 288 298 302 308 313 320 328 330 329 334 330 331 333 328 317 310 292 285 276 265 284 287 280 264 260 261 264 235 293 310 8 347 331 323 335 336 290 312 317 184 252 205 240 222 273 265 279 289 285 293 293
267 270 275 284 292 298 304 310 319 325 327 325 332 326 328 328 324 308 301 309 311 288 304 288 305 339 325 257 269 213 253 224 221 249 16 276 268 269 280 260 313 315 305 257 329 271 283 296 299 290 310 306 299 294
263 269 275 281 288 295 300 305 316 324 324 324 331 322 324 324 319 311 312 310 285 271 278 281 302 312 306 232 273 249 234 234 241 233 225 254 259 207 243 242 288 269 292 281 256 288 288 288 308 320 315 311 303 299
259 266 271 276 284 290 296 303 314 323 323 323 330 318 321 323 321 329 338 335 236 218 287 295 323 342 346 282 248 227 219 218 216 203 217 233 243 272 257 246 242 232 216 267 286 298 269 299 305 319 308 305 306 311
249 264 272 275 282 286 289 301 313 321 323 324 327 316 321 327 330 334 272 46 7 222 290 306 316 316 355 342 269 210 211 217 220 213 222 233 232 183 254 261 261 266 243 323 284 294 313 302 301 324 312 317 314 311
235 245 268 270 279 281 286 301 311 317 323 323 323 310 319 331 328 307 291 245 40 19 276 298 300 323 1 6 228 217 218 217 221 233 226 242 244 223 270 269 279 288 296 290 271 301 309 322 310 322 321 322 321 322
232 237 259 266 275 278 289 301 311 317 323 323 313 302 307 303 297 315 341 348 261 275 291 315 285 312 355 10 324 289 189 205 227 243 243 227 226 212 255 244 286 287 295 269 275 306 302 319 323 322 328 334 333 342
234 238 258 263 273 278 290 302 311 319 326 323 310 310 337 157 344 319 315 327 156 243 345 314 296 300 326 317 284 247 196 217 229 230 226 202 220 236 242 248 262 300 245 259 303 325 337 320 328 336 341 344 345 348
236 228 256 263 268 274 288 303 316 322 329 331 319 19 113 116 281 313 324 93 111 158 221 254 260 267 304 297 284 312 195 275 244 222 172 211 251 262 288 295 258 222 263 1 339 339 338 337 353 353 348 348 350 353
237 225 246 260 256 268 288 308 314 328 334 349 344 173 300 266 257 269 236 204 154 178 235 252 253 271 299 249 259 264 254 236 273 197 231 6 309 330 359 7 176 206 356 351 342 358 351 353 355 356 355 357 5 12
223 227 234 239 244 260 286 304 315 323 330 342 353 31 38 81 240 257 239 90 201 226 220 228 284 278 286 279 305 300 272 277 255 154 263 350 6 335 334 327 245 207 12 348 16 10 11 5 358 11 7 7 11 19
213 218 228 233 241 251 282 295 304 308 319 34 44 14 188 245 27 104 8 334 309 255 271 295 299 259 296 271 289 304 273 248 319 350 50 35 336 340 343 334 277 160 295 8 24 23 21 19 13 16 15 23 27 33
214 214 230 233 242 245 265 274 279 265 174 169 196 328 161 170 300 187 224 227 300 281 306 313 307 240 225 256 236 285 295 310 14 1 26 336 332 323 344 12 118 106 3 8 20 28 27 27 28 29 28 33 40 41
214 222 231 228 234 234 232 234 230 161 146 234 290 234 210 346 17 17 11 1 354 336 324 310 293 241 226 279 233 302 335 47 38 8 299 315 324 348 0 8 16 132 53 343 15 26 32 32 36 36 38 41 46 48
207 221 221 216 216 204 199 184 156 135 157 239 231 293 283 21 345 347 341 5 1 346 339 345 39 333 14 341 54 12 19 34 332 314 314 333 338 346 358 357 12 61 25 354 10 18 36 37 38 40 43 43 46 50
203 212 203 185 182 176 162 149 144 181 208 218 241 244 264 274 354 56 357 355 353 4 317 346 57 296 293 18 29 28 353 316 320 323 332 336 342 345 350 358 19 41 328 15 350 344 29 42 42 44 44 45 51 53
202 198 177 169 161 153 153 154 180 202 227 228 244 283 114 97 40 5 345 348 346 2 2 26 47 39 33 13 357 345 322 319 318 322 328 340 346 350 357 3 11 32 45 27 11 34 28 48 46 49 52 51 59 68
196 186 167 166 163 145 151 177 194 243 233 250 234 247 121 81 66 45 17 0 351 91 80 55 59 43 9 353 321 317 325 327 322 323 321 340 353 353 358 18 4 25 38 61 56 56 58 53 58 58 61 53 61 69
173 159 164 163 161 147 162 195 195 230 250 95 216 117 107 98 78 64 42 40 81 66 55 49 50 354 334 345 345 337 335 329 322 319 322 342 349 357 0 11 12 11 24 56 57 59 69 79 75 70 54 69 68 73
154 156 158 170 175 173 187 189 191 211 213 224 284 140 124 108 87 74 60 46 60 44 76 59 14 14 11 7 0 353 343 340 335 328 329 337 352 356 357 14 20 28 34 20 23 40 153 95 81 55 74 86 84 80
158 157 156 158 161 178 244 211 212 96 186 206 240 185 145 150 160 103 84 57 74 68 67 47 8 2 1 353 356 3 1 7 22 18 10 0 1 359 354 0 17 18 18 29 27 31 42 207 99 110 103 97 91 97
146 147 142 155 172 194 243 194 204 195 158 217 177 127 130 135 136 134 86 89 117 87 65 29 16 21 25 20 8 13 18 25 28 20 17 15 12 4 4 9 9 8 9 20 44 46 12 204 192 165 128 126 118 116
152 154 167 185 189 198 207 198 185 178 182 121 161 137 124 138 156 90 102 109 141 87 67 32 22 18 30 25 19 13 9 18 24 23 21 19 12 13 13 9 10 7 3 8 28 84 98 162 192 183 174 160 153 143
167 187 182 184 191 207 191 157 173 180 199 183 197 130 159 149 97 102 138 149 169 140 91 56 53 38 32 25 22 14 11 15 16 20 16 8 14 13 13 12 13 12 6 4 14 20 193 156 154 207 206 196 177 165
186 194 183 196 209 193 200 163 170 172 179 158 199 132 115 94 87 136 140 156 165 147 125 95 60 41 33 29 21 12 10 16 28 36 9 18 21 21 13 4 2 0 3 357 344 338 322 214 211 237 212 213 208 196
197 215 199 207 215 206 210 149 133 124 179 188 159 116 104 117 138 130 141 165 159 150 135 98 56 39 25 43 20 11 14 18 23 36 26 20 27 31 24 4 356 354 349 340 331 316 297 256 234 218 196 210 210 216
221 218 209 193 212 218 186 152 148 171 199 184 130 131 137 156 136 168 172 166 144 128 129 98 85 75 53 42 20 9 15 22 33 46 51 48 33 23 24 15 8 356 352 349 332 311 289 267 260 219 212 188 207 212
221 212 208 219 204 195 199 181 185 182 198 166 108 92 113 107 149 142 143 145 149 140 143 120 86 88 85 44 24 13 8 9 14 21 23 20 17 17 13 13 11 8 6 357 352 328 291 274 248 229 215 203 188 201
229 191 224 188 149 196 205 178 147 188 184 140 113 115 114 117 130 150 147 156 165 159 157 131 100 92 78 66 34 13 10 7 9 14 15 13 6 3 6 7 9 9 9 9 3 0 344 280 259 245 237 240 223 214
192 202 218 203 173 177 163 149 130 125 118 120 135 132 132 125 134 137 137 156 177 184 185 169 132 93 66 46 30 15 7 5 359 2 5 5 6 5 5 6 9 10 10 13 17 18 16 9 350 232 226 223 226 223
202 215 176 158 149 163 155 136 108 116 119 124 123 136 127 120 111 158 149 179 195 148 138 144 142 101 68 67 25 23 7 356 345 348 349 355 6 9 6 6 9 13 14 17 22 26 29 29 29 27 38 231 235 225
211 228 190 151 159 172 153 131 143 126 127 128 141 143 130 120 130 165 172 168 155 159 159 154 147 173 195 206 142 60 27 340 333 333 337 342 359 10 9 10 11 14 16 21 26 31 35 38 42 42 44 54 81 166
Wind_Speed_850mb
40 39 38 38 39 41 38 40 43 45 51 45 47 45 43 41 33 25 18 1 14 20 58 55 42 43 36 22 5 14 19 8 8 6 4 4 3 6 7 7 7 5 6 6 3 8 12 9 3 9 8 37 39 43
42 40 38 42 39 41 37 37 42 46 49 48 46 48 43 38 31 22 30 14 24 34 50 74 85 78 77 80 54 26 20 12 7 4 5 6 5 6 3 6 9 5 6 5 10 9 8 20 32 48 38 28 52 55
43 42 39 40 39 40 37 36 39 46 46 48 46 48 43 39 35 26 35 34 29 30 55 21 20 14 31 9 22 26 22 20 13 16 1 4 8 1 3 8 6 9 22 8 12 7 13 34 40 27 48 54 54 62
43 44 40 39 43 39 37 34 36 44 47 47 46 48 41 41 38 36 41 40 27 17 12 23 32 60 25 40 32 37 41 19 17 14 9 7 5 10 6 11 18 20 11 9 11 25 35 26 43 61 65 53 54 51
41 44 41 41 42 40 37 34 37 43 43 45 43 48 42 41 43 39 19 9 6 14 10 32 59 18 31 13 18 40 41 44 20 8 6 6 7 6 7 7 7 9 5 4 8 33 16 35 44 62 63 57 50 49
37 39 41 41 43 41 38 33 37 44 44 43 40 43 39 37 37 29 3 14 4 20 12 8 29 28 39 16 12 27 42 47 29 10 9 11 12 8 6 6 12 35 18 34 23 27 34 52 48 52 56 50 50 44
53 45 46 45 45 42 34 32 38 43 42 40 37 41 32 26 31 14 6 4 5 4 9 12 16 24 38 26 8 26 37 26 21 8 12 9 9 7 8 13 31 37 48 42 25 28 31 40 44 58 46 42 41 40
48 42 45 42 42 38 30 33 39 42 39 36 35 35 28 25 12 6 7 11 16 15 7 5 9 19 18 7 10 7 14 17 12 8 6 7 7 12 9 21 20 29 35 18 23 27 34 49 58 42 37 39 37 37
49 45 39 37 34 31 28 33 38 40 37 34 25 23 6 5 2 11 20 18 3 4 5 4 6 7 22 16 15 6 6 4 8 5 6 7 5 8 15 20 20 27 9 22 14 22 41 49 43 34 31 33 38 36
49 50 38 33 31 28 28 32 37 35 33 22 5 4 4 7 7 22 5 2 3 2 3 6 8 7 13 9 8 6 6 3 5 9 9 6 5 38 53 27 28 15 8 7 23 33 41 45 35 31 35 32 30 32
52 43 36 29 29 27 26 29 32 29 23 11 5 2 5 10 8 5 4 5 6 4 7 11 15 12 16 7 6 8 5 5 4 5 5 1 4 14 36 16 14 6 5 12 14 29 41 39 37 32 37 31 29 28
45 37 36 31 31 25 21 25 24 20 15 11 7 4 3 0 5 4 4 4 4 4 9 9 19 20 16 12 5 9 4 5 8 12 5 6 12 59 60 33 17 4 2 7 14 40 40 37 37 31 30 30 25 24
41 41 33 35 30 21 17 20 16 14 7 3 4 2 0 2 4 0 8 4 5 4 7 16 12 8 8 8 10 5 6 8 20 5 3 8 44 68 46 23 1 9 3 7 20 38 42 26 35 35 32 32 30 29
44 37 38 33 27 18 15 13 12 7 5 2 4 8 6 1 3 0 5 6 7 11 25 28 21 10 8 5 3 7 7 7 5 17 10 16 60 81 34 35 12 11 2 8 21 37 41 44 42 40 38 39 40 41
40 36 35 28 22 16 12 9 6 10 4 3 3 2 5 4 12 19 19 21 27 25 36 29 15 10 3 3 2 6 6 8 7 9 8 49 73 58 54 51 20 6 7 8 23 27 35 48 46 47 42 40 44 41
43 36 31 24 19 16 12 11 14 8 3 3 5 3 6 8 10 16 17 21 29 37 30 10 9 11 3 7 5 12 8 9 9 13 42 64 74 66 54 48 33 7 10 11 21 20 24 42 45 50 48 44 44 43
38 34 28 24 22 17 20 22 10 6 5 5 9 12 22 18 5 9 15 21 25 22 4 5 6 5 7 9 10 7 8 12 46 57 59 66 72 72 66 49 45 14 4 12 12 11 13 28 44 40 52 45 42 45
41 35 30 29 26 26 24 10 7 9 9 14 7 14 15 15 8 12 16 20 14 10 8 6 10 10 6 5 5 10 37 48 50 57 62 67 73 77 74 46 45 22 8 8 17 9 7 18 34 41 41 44 42 43
37 33 35 34 37 18 10 9 6 4 13 11 19 11 16 19 20 16 13 12 6 4 8 10 8 5 4 7 22 36 39 44 55 63 66 56 60 68 67 52 49 32 29 16 17 11 15 15 23 33 30 37 46 43
33 34 33 39 36 10 8 7 10 6 6 1 3 9 15 15 19 17 17 15 21 14 15 7 4 8 12 26 32 38 44 43 49 54 59 56 57 57 47 55 60 30 21 17 21 10 9 10 14 17 25 25 37 43
43 35 32 34 27 8 7 6 11 9 5 4 4 17 16 20 20 20 18 24 22 10 8 6 9 12 18 27 36 43 37 37 37 31 39 51 46 43 44 51 46 43 41 30 22 22 8 4 10 11 14 18 24 32
36 32 29 31 8 9 7 10 5 2 7 7 6 9 14 11 11 7 15 18 10 8 5 5 11 16 22 26 31 45 37 30 24 25 27 32 42 44 41 39 41 38 37 36 22 22 3 8 2 11 18 26 24 21
38 36 21 10 7 17 8 10 8 9 5 5 8 8 8 8 14 16 10 8 8 10 6 9 12 14 20 23 32 47 38 32 32 35 31 34 38 33 33 32 27 33 35 30 16 18 13 16 7 9 14 20 19 20
43 17 10 14 12 9 7 8 8 4 2 3 4 8 7 10 22 8 6 7 14 3 5 7 10 12 20 29 37 46 46 30 28 34 43 41 39 38 39 37 30 25 31 26 21 10 20 13 16 15 13 17 17 16
11 13 10 10 15 8 9 8 9 7 7 8 8 5 7 11 5 5 6 14 14 7 4 6 8 17 23 26 30 41 40 34 27 30 33 39 41 42 41 38 34 32 33 24 18 5 16 11 14 24 22 25 22 17
7 13 15 17 7 9 10 10 11 10 6 6 7 14 8 7 5 6 5 19 16 11 10 8 12 19 22 21 24 39 45 28 20 25 26 28 35 42 48 52 52 43 37 31 28 19 9 20 27 9 39 33 29 22
8 10 13 18 11 11 7 10 19 9 7 8 7 6 6 6 5 6 20 19 18 15 11 9 9 8 14 14 15 27 37 32 24 19 25 25 32 37 43 46 49 48 41 34 30 23 19 9 19 26 16 47 46 41
13 9 10 17 12 18 6 8 9 9 8 11 18 6 10 9 5 19 20 21 18 15 14 11 11 6 9 11 17 23 31 35 28 18 21 29 32 34 36 42 39 35 36 33 32 28 24 24 21 28 31 22 42 56
11 10 12 11 11 8 17 9 11 10 9 24 9 5 8 9 26 32 27 23 18 12 15 15 19 18 13 12 16 22 31 39 45 44 45 48 50 49 47 48 52 48 45 38 35 28 30 29 27 26 33 43 34 26
11 22 10 14 10 7 11 11 12 13 14 28 29 45 51 41 29 28 30 25 18 16 14 14 15 15 15 14 19 21 27 35 43 42 39 42 44 40 42 47 50 51 50 48 43 38 21 19 27 33 35 39 52 55
14 25 13 13 11 17 17 25 35 35 38 40 56 61 40 36 37 32 27 20 18 13 11 17 15 16 16 13 15 19 21 25 33 36 33 27 31 35 37 42 43 45 47 45 44 44 41 26 11 15 31 39 36 40
20 16 22 8 10 27 30 35 15 24 32 35 27 32 27 17 10 17 16 13 12 14 18 15 10 8 8 6 9 19 13 20 28 35 41 32 32 33 34 37 38 38 39 41 42 42 43 43 39 25 10 6 21 39
31 16 28 14 13 22 30 22 12 15 17 12 15 36 24 13 9 12 19 18 17 16 16 15 12 8 7 5 3 11 6 16 25 36 36 31 31 30 30 33 34 34 34 34 37 39 42 42 42 40 34 25 14 17
Wind_Direction_850mb
268 276 286 293 300 306 311 316 323 330 332 335 335 334 335 336 337 332 348 198 305 271 287 282 277 273 265 255 211 303 338 345 345 358 326 309 326 313 332 301 266 273 197 239 247 239 268 149 168 225 235 301 302 300
267 275 282 288 298 302 308 313 320 328 330 329 334 330 331 333 328 317 310 292 285 276 265 284 287 280 264 260 261 264 235 293 310 8 347 331 323 335 336 290 312 317 184 252 205 240 222 273 265 279 289 285 293 293
267 270 275 284 292 298 304 310 319 325 327 325 332 326 328 328 324 308 301 309 311 288 304 288 305 339 325 257 269 213 253 224 221 249 16 276 268 269 280 260 313 315 305 257 329 271 283 296 299 290 310 306 299 294
263 269 275 281 288 295 300 305 316 324 324 324 331 322 324 324 319 311 312 310 285 271 278 281 302 312 306 232 273 249 234 234 241 233 225 254 259 207 243 242 288 269 292 281 256 288 288 288 308 320 315 311 303 299
259 266 271 276 284 290 296 303 314 323 323 323 330 318 321 323 321 329 338 335 236 218 287 295 323 342 346 282 248 227 219 218 216 203 217 233 243 272 257 246 242 232 216 267 286 298 269 299 305 319 308 305 306 311
249 264 272 275 282 286 289 301 313 321 323 324 327 316 321 327 330 334 272 46 7 222 290 306 316 316 355 342 269 210 211 217 220 213 222 233 232 183 254 261 261 266 243 323 284 294 313 302 301 324 312 317 314 311
235 245 268 270 279 281 286 301 311 317 323 323 323 310 319 331 328 307 291 245 40 19 276 298 300 323 1 6 228 217 218 217 221 233 226 242 244 223 270 269 279 288 296 290 271 301 309 322 310 322 321 322 321 322
232 237 259 266 275 278 289 301 311 317 323 323 313 302 307 303 297 315 341 348 261 275 291 315 285 312 355 10 324 289 189 205 227 243 243 227 226 212 255 244 286 287 295 269 275 306 302 319 323 322 328 334 333 342
234 238 258 263 273 278 290 302 311 319 326 323 310 310 337 157 344 319 315 327 156 243 345 314 296 300 326 317 284 247 196 217 229 230 226 202 220 236 242 248 262 300 245 259 303 325 337 320 328 336 341 344 345 348
236 228 256 263 268 274 288 303 316 322 329 331 319 19 113 116 281 313 324 93 111 158 221 254 260 267 304 297 284 312 195 275 244 222 172 211 251 262 288 295 258 222 263 1 339 339 338 337 353 353 348 348 350 353
237 225 246 260 256 268 288 308 314 328 334 349 344 173 300 266 257 269 236 204 154 178 235 252 253 271 299 249 259 264 254 236 273 197 231 6 309 330 359 7 176 206 356 351 342 358 351 353 355 356 355 357 5 12
223 227 234 239 244 260 286 304 315 323 330 342 353 31 38 81 240 257 239 90 201 226 220 228 284 278 286 279 305 300 272 277 255 154 263 350 6 335 334 327 245 207 12 348 16 10 11 5 358 11 7 7 11 19
213 218 228 233 241 251 282 295 304 308 319 34 44 14 188 245 27 104 8 334 309 255 271 295 299 259 296 271 289 304 273 248 319 350 50 35 336 340 343 334 277 160 295 8 24 23 21 19 13 16 15 23 27 33
214 214 230 233 242 245 265 274 279 265 174 169 196 328 161 170 300 187 224 227 300 281 306 313 307 240 225 256 236 285 295 310 14 1 26 336 332 323 344 12 118 106 3 8 20 28 27 27 28 29 28 33 40 41
214 222 231 228 234 234 232 234 230 161 146 234 290 234 210 346 17 17 11 1 354 336 324 310 293 241 226 279 233 302 335 47 38 8 299 315 324 348 0 8 16 132 53 343 15 26 32 32 36 36 38 41 46 48
207 221 221 216 216 204 199 184 156 135 157 239 231 293 283 21 345 347 341 5 1 346 339 345 39 333 14 341 54 12 19 34 332 314 314 333 338 346 358 357 12 61 25 354 10 18 36 37 38 40 43 43 46 50
203 212 203 185 182 176 162 149 144 181 208 218 241 244 264 274 354 56 357 355 353 4 317 346 57 296 293 18 29 28 353 316 320 323 332 336 342 345 350 358 19 41 328 15 350 344 29 42 42 44 44 45 51 53
202 198 177 169 161 153 153 154 180 202 227 228 244 283 114 97 40 5 345 348 346 2 2 26 47 39 33 13 357 345 322 319 318 322 328 340 346 350 357 3 11 32 45 27 11 34 28 48 46 49 52 51 59 68
196 186 167 166 163 145 151 177 194 243 233 250 234 247 121 81 66 45 17 0 351 91 80 55 59 43 9 353 321 317 325 327 322 323 321 340 353 353 358 18 4 25 38 61 56 56 58 53 58 58 61 53 61 69
173 159 164 163 161 147 162 195 195 230 250 95 216 117 107 98 78 64 42 40 81 66 55 49 50 354 334 345 345 337 335 329 322 319 322 342 349 357 0 11 12 11 24 56 57 59 69 79 75 70 54 69 68 73
154 156 158 170 175 173 187 189 191 211 213 224 284 140 124 108 87 74 60 46 60 44 76 59 14 14 11 7 0 353 343 340 335 328 329 337 352 356 357 14 20 28 34 20 23 40 153 95 81 55 74 86 84 80
158 157 156 158 161 178 244 211 212 96 186 206 240 185 145 150 160 103 84 57 74 68 67 47 8 2 1 353 356 3 1 7 22 18 10 0 1 359 354 0 17 18 18 29 27 31 42 207 99 110 103 97 91 97
146 147 142 155 172 194 243 194 204 195 158 217 177 127 130 135 136 134 86 89 117 87 65 29 16 21 25 20 8 13 18 25 28 20 17 15 12 4 4 9 9 8 9 20 44 46 12 204 192 165 128 126 118 116
152 154 167 185 189 198 207 198 185 178 182 121 161 137 124 138 156 90 102 109 141 87 67 32 22 18 30 25 19 13 9 18 24 23 21 19 12 13 13 9 10 7 3 8 28 84 98 162 192 183 174 160 153 143
167 187 182 184 191 207 191 157 173 180 199 183 197 130 159 149 97 102 138 149 169 140 91 56 53 38 32 25 22 14 11 15 16 20 16 8 14 13 13 12 13 12 6 4 14 20 193 156 154 207 206 196 177 165
186 194 183 196 209 193 200 163 170 172 179 158 199 132 115 94 87 136 140 156 165 147 125 95 60 41 33 29 21 12 10 16 28 36 9 18 21 21 13 4 2 0 3 357 344 338 322 214 211 237 212 213 208 196
197 215 199 207 215 206 210 149 133 124 179 188 159 116 104 117 138 130 141 165 159 150 135 98 56 39 25 43 20 11 14 18 23 36 26 20 27 31 24 4 356 354 349 340 331 316 297 256 234 218 196 210 210 216
221 218 209 193 212 218 186 152 148 171 199 184 130 131 137 156 136 168 172 166 144 128 129 98 85 75 53 42 20 9 15 22 33 46 51 48 33 23 24 15 8 356 352 349 332 311 289 267 260 219 212 188 207 212
221 212 208 219 204 195 199 181 185 182 198 166 108 92 113 107 149 142 143 145 149 140 143 120 86 88 85 44 24 13 8 9 14 21 23 20 17 17 13 13 11 8 6 357 352 328 291 274 248 229 215 203 188 201
229 191 224 188 149 196 205 178 147 188 184 140 113 115 114 117 130 150 147 156 165 159 157 131 100 92 78 66 34 13 10 7 9 14 15 13 6 3 6 7 9 9 9 9 3 0 344 280 259 245 237 240 223 214
192 202 218 203 173 177 163 149 130 125 118 120 135 132 132 125 134 137 137 156 177 184 185 169 132 93 66 46 30 15 7 5 359 2 5 5 6 5 5 6 9 10 10 13 17 18 16 9 350 232 226 223 226 223
202 215 176 158 149 163 155 136 108 116 119 124 123 136 127 120 111 158 149 179 195 148 138 144 142 101 68 67 25 23 7 356 345 348 349 355 6 9 6 6 9 13 14 17 22 26 29 29 29 27 38 231 235 225
211 228 190 151 159 172 153 131 143 126 127 128 141 143 130 120 130 165 172 168 155 159 159 154 147 173 195 206 142 60 27 340 333 333 337 342 359 10 9 10 11 14 16 21 26 31 35 38 42 42 44 54 81 166